Location: Peterborough
(44.3091°N, 78.3197°W)
Time: 02:58:11
(UTC-04:00)

Tiros 1 - Pass Details

Date: 03 April 2023
Orbit: 627 x 661 km, 48.4° (Epoch: 09 June)

Event Time Altitude Azimuth Distance (km) Brightness Sun altitude
Rises 06:28:36 0° 284° (WNW) 2,986 - -4.8°
Exits shadow 06:29:16 - 285° (WNW) 2,729 9.8 -4.7°
Reaches altitude 10° 06:31:00 10° 289° (WNW) 2,076 9.2 -4.4°
Maximum altitude 06:35:42 54° 7° (N) 806 7.8 -3.6°
Drops below altitude 10° 06:40:24 10° 85° (E) 2,075 11.8 -2.7°
Sets 06:42:48 0° 90° (E) 2,985 13.0 -2.3°
